Flag for Spain Weather past 2 weeks in Barcelona, Barcelona, Spain

Now
45 °F

Passing clouds.


Feels Like: 40 °F
Forecast: 38 / 53 °F
Wind: 9 mph from Northwest

Location: Barcelona Airport

Current Time: Jan 27, 2015 at 5:08:51 AM

Latest Report: Jan 27, 2015 at 4:00 AM


Visibility: N/A

Pressure: 30.24 "Hg

Humidity: 66%

Dew point: 34 °F

Location of BarcelonaLocation

Historic Weather in Barcelona — Graph

°F

Barcelona temperature yesterday

Maximum temperature yesterday: 54 °F (at 3:00 PM)
Minimum temperature yesterday: 41 °F (at 4:00 AM)
Average temperature yesterday: 46 °F

Past Weeks' High & Low Weather Summary

 TemperatureHumidityPressure
High61 °F (Jan 13, 2:30 PM)100% (Jan 19, 6:30 PM)30.54 "Hg (Jan 19, 6:30 PM)
Low36 °F (Jan 18, 5:30 AM)17% (Jan 25, 3:30 AM)29.68 "Hg (Jan 21, 2:30 PM)
Average48 °F69%30.04 "Hg
* Reported Jan 12 3:00 AM — Jan 27 3:30 AM, Barcelona, Weather by CustomWeather, © 2014

Note: Actual official high and low records may vary slightly from our data, if they occured in-between our weather recording intervals... More about our weather records

Advertising

Barcelona weather history for previous 24 hours

 ConditionsComfort  
Time TempWeatherWind HumidityBarometerVisibility
3:30 AM
Jan 27
46 °FPassing clouds.7 mph62%30.27 "HgN/A
3:00 AM46 °FPassing clouds.10 mph62%30.27 "HgN/A
2:30 AM45 °FPassing clouds.12 mph61%30.27 "HgN/A
2:00 AM45 °FPassing clouds.9 mph61%30.27 "HgN/A
1:30 AM45 °FPassing clouds.9 mph61%30.30 "HgN/A
1:00 AM46 °FPassing clouds.10 mph62%30.30 "HgN/A
12:30 AM46 °FPassing clouds.8 mph62%30.30 "HgN/A
12:00 AM46 °FPassing clouds.9 mph57%30.30 "HgN/A
11:30 PM
Jan 26
46 °FPassing clouds.8 mph57%30.33 "HgN/A
11:00 PM46 °FPassing clouds.9 mph57%30.33 "HgN/A
10:30 PM48 °FPassing clouds.6 mph54%30.33 "HgN/A
10:00 PM48 °FPassing clouds.2 mph54%30.33 "HgN/A
9:30 PM48 °FPassing clouds.3 mph54%30.33 "HgN/A
9:00 PM48 °FPassing clouds.6 mph58%30.33 "HgN/A
8:30 PM48 °FPassing clouds.7 mph58%30.33 "HgN/A
8:00 PM48 °FPassing clouds.6 mph62%30.30 "HgN/A
7:30 PM48 °FPassing clouds.5 mph66%30.30 "HgN/A
7:00 PM48 °FPassing clouds.7 mph62%30.30 "HgN/A
6:30 PM48 °FPassing clouds.6 mph62%30.30 "HgN/A
6:00 PM50 °FPassing clouds.6 mph58%30.30 "HgN/A
5:30 PM50 °FPassing clouds.No wind58%30.30 "HgN/A
5:00 PM52 °FPassing clouds.5 mph50%30.27 "HgN/A
4:30 PM52 °FPassing clouds.7 mph47%30.27 "HgN/A
4:00 PM52 °FPassing clouds.5 mph47%30.27 "HgN/A
3:30 PM54 °FPassing clouds.2 mph38%30.27 "HgN/A
3:00 PM54 °FPassing clouds.2 mph41%30.27 "HgN/A
2:30 PM52 °FPassing clouds.5 mph41%30.27 "HgN/A
2:00 PM50 °FPassing clouds.9 mph47%30.27 "HgN/A
1:30 PM50 °FPassing clouds.9 mph47%30.30 "HgN/A
1:00 PM48 °FPassing clouds.9 mph50%30.30 "HgN/A
12:30 PM48 °FPassing clouds.12 mph46%30.30 "HgN/A
12:00 PM46 °FPassing clouds.14 mph50%30.30 "HgN/A
11:30 AM46 °FPassing clouds.16 mph50%30.33 "HgN/A
11:00 AM45 °FPassing clouds.15 mph53%30.30 "HgN/A
10:30 AM43 °FPassing clouds.17 mph57%30.30 "HgN/A
10:00 AM43 °FPassing clouds.16 mph53%30.30 "HgN/A
9:30 AM41 °FPassing clouds.16 mph61%30.30 "HgN/A
9:00 AM41 °FPassing clouds.14 mph57%30.30 "HgN/A
8:30 AM41 °FSunny.14 mph57%30.27 "Hg10 mi
8:00 AM41 °FPassing clouds.15 mph57%30.27 "HgN/A
7:30 AM41 °FClear.17 mph57%30.27 "Hg10 mi
7:00 AM41 °FClear.18 mph57%30.24 "Hg10 mi
6:30 AM41 °FClear.18 mph53%30.24 "Hg10 mi
6:00 AM41 °FClear.17 mph53%30.24 "Hg10 mi
5:30 AM43 °FClear.17 mph49%30.24 "Hg10 mi
5:00 AM43 °FClear.16 mph49%30.24 "Hg10 mi
Weather by CustomWeather, © 2014

See weather overviewHow to use our weather pages